[[{"header":{"parameterUnit":"m.s-1","parameterCategory":1,"la1":30.2991,"la2":30.254,"lo1":-89.0895,"lo2":-89.0444,"dy":0.0017,"dx":0.0017,"nx":28,"ny":28,"refTime":"2023-10-30T09:00:00:Z","depth":0,"parameterNumber":2,"parameterNumberName":"U-component_of_WINDS"},"data":[0,0,0,0,0,0,0,0,0,0,0,0,0,0,0,0,0,0,0,0,0,0,0,0,0,0,0,0,0,0,0,0,0,0,0,0,0,0,0,0,0,0,0,0,0,0,0,0,0,0,0,0,0,0,0,0,0,0,0.4003,0.4002,0,0.3985,0.3985,0.3985,0.3981,0.3981,0.3982,0.3982,0.3962,0.3962,0.3961,0,0,0,0,0,0,0,0,0,0,0,0,0,0.4032,0.4031,0.4003,0.4002,0.4002,0.3985,0.3985,0.3985,0.3981,0.3981,0.3982,0.3982,0.3963,0.3962,0.3961,0,0,0,0,0,0,0,0,0,0,0,0,0,0.4017,0.4031,0.4003,0.3998,0.3998,0.3985,0.3985,0.3985,0.3981,0.3981,0.3982,0.3982,0.3963,0.3962,0.3961,0.3951,0,0,0.3958,0.3958,0,0,0,0,0,0,0,0,0.4018,0.4016,0.3999,0.3999,0.3998,0.3986,0.3988,0.3974,0.3981,0.3987,0.3982,0.3982,0.397,0.3968,0.3965,0.395,0.3949,0.3958,0.3957,0.3957,0.3957,0,0,0,0,0,0,0,0.4019,0.4017,0.3996,0.3999,0.3998,0.3997,0.3995,0.3986,0.3978,0.3987,0.3987,0.3985,0.397,0.3966,0.3964,0.3949,0.3958,0.3957,0.3957,0.3956,0.3927,0.3927,0,0,0,0,0,0,0.4021,0.4018,0.3996,0.3995,0.4009,0.3996,0.3994,0.3989,0.3978,0.3976,0.3985,0.3985,0.3967,0.3965,0.3964,0.3952,0.3957,0.3956,0.3956,0.3927,0.3927,0.3927,0,0,0,0,0,0,0.4021,0.4019,0.3997,0.4006,0.4003,0.3996,0.399,0.3989,0.3985,0.3976,0.3975,0.3982,0.3967,0.3965,0.3955,0.3951,0.3956,0.3955,0.3927,0.3927,0.3927,0.3928,0,0,0,0,0,0,0.4022,0.4019,0.4015,0.4006,0.4003,0.3988,0.399,0.3988,0.3984,0.3983,0.3973,0.3972,0.3967,0.3956,0.3954,0.395,0.3954,0.3928,0.3927,0.3927,0.3928,0.3928,0.3927,0,0,0,0,0,0.4023,0.4016,0.4015,0.4013,0.3998,0.3988,0.3986,0.3982,0.3983,0.3979,0.3974,0.3972,0.3952,0.3955,0.3952,0.3948,0.3928,0.3927,0.3927,0.3928,0.3928,0.3927,0,0,0,0,0,0,0.4024,0.4014,0.4014,0.4003,0.3997,0.3988,0.3982,0.3981,0.3974,0.3974,0.3968,0.3966,0.3956,0.3951,0.3955,0.3939,0.394,0.3939,0.3942,0.3941,0.3941,0.3942,0.3953,0,0,0,0,0,0.4023,0.4016,0.4008,0.3999,0.3996,0.399,0.3986,0.3983,0.3976,0.3973,0.3966,0.3959,0.3951,0.3946,0.3938,0.3928,0.3926,0.3924,0.3923,0.3923,0.3922,0.3917,0.3916,0.3925,0.3925,0.3925,0,0,0.402,0.4014,0.401,0.3999,0.3994,0.3987,0.3988,0.398,0.3974,0.3971,0.3961,0.3957,0.3948,0.3938,0.3933,0.3934,0.3919,0.3922,0.3922,0.3921,0.3916,0.3915,0.3914,0.3925,0.3925,0.3925,0,0,0.4012,0.4007,0.3999,0.3995,0.3987,0.3983,0.3981,0.3973,0.397,0.396,0.3958,0.3952,0.3938,0.3933,0.3928,0.3919,0.3918,0.3917,0.3915,0.391,0.3909,0.3908,0.3905,0.3904,0.3916,0.3916,0.3916,0,0.4009,0.3999,0.3996,0.3988,0.3984,0.3982,0.3974,0.397,0.3959,0.3956,0.3957,0.3941,0.3935,0.3924,0.3922,0.3919,0.3917,0.3918,0.3909,0.3909,0.3908,0.3905,0.3904,0.3916,0.3916,0.3916,0.3916,0,0.3997,0.399,0.3985,0.3976,0.3971,0.3964,0.3959,0.3954,0.3953,0.3949,0.3939,0.3933,0.3924,0.3921,0.3919,0.391,0.3911,0.3911,0.3912,0.3907,0.3904,0.3903,0.3916,0.3916,0.3916,0.3916,0,0,0.3987,0.3978,0.3976,0.3972,0.3965,0.3959,0.3952,0.3944,0.394,0.3934,0.3928,0.3917,0.3918,0.3913,0.391,0.3905,0.39,0.3906,0.3906,0.3905,0.389,0.389,0.3889,0.3899,0.3899,0.3899,0.3891,0,0.3978,0.3965,0.3963,0.3952,0.3946,0.3944,0.3938,0.3933,0.393,0.3924,0.392,0.3912,0.3913,0.391,0.3906,0.3901,0.3897,0.3902,0.3893,0.3893,0.3895,0.3888,0.3887,0.388,0.389,0.389,0.389,0,0.3965,0.3959,0.3948,0.3942,0.394,0.3934,0.3928,0.3922,0.3916,0.3914,0.3909,0.3907,0.39,0.3902,0.3892,0.3896,0.3893,0.389,0.389,0.3888,0.3891,0.3886,0.3878,0.3877,0.3888,0.3888,0.3888,0,0.3959,0.3949,0.3941,0.3938,0.3931,0.3927,0.3924,0.3919,0.3915,0.3909,0.3906,0.3899,0.3895,0.389,0.3887,0.3889,0.3877,0.3879,0.3875,0.3875,0.3872,0.3873,0.3864,0.3871,0.3871,0.3871,0.3871,0,0.3949,0.3942,0.3938,0.3934,0.3926,0.3924,0.3916,0.3913,0.3909,0.3903,0.3902,0.3897,0.3892,0.3887,0.3884,0.3876,0.3875,0.3873,0.3872,0.3873,0.3873,0.387,0.387,0.387,0.387,0.387,0.387,0,0.394,0.3938,0.3929,0.3924,0.3923,0.3918,0.3913,0.3908,0.3906,0.3899,0.3897,0.3892,0.3886,0.3882,0.3874,0.3872,0.3864,0.3863,0.3866,0.3865,0.3862,0.3862,0.385,0.3849,0.3857,0.3857,0.3857,0,0.3934,0.3929,0.3924,0.392,0.3917,0.3912,0.3908,0.3906,0.3902,0.3896,0.3892,0.3886,0.388,0.387,0.3866,0.386,0.3859,0.3855,0.3858,0.3859,0.3859,0.3859,0.3859,0.3855,0.3855,0.3854,0.3854,0,0.3923,0.3922,0.3917,0.3912,0.3908,0.3903,0.3899,0.3896,0.3893,0.3889,0.3883,0.3879,0.3871,0.3865,0.3859,0.3855,0.3854,0.3854,0.3853,0.3853,0.3855,0.3854,0.3864,0.3854,0.3854,0.3854,0.3854,0.3854,0.3915,0.3911,0.3907,0.3902,0.3898,0.3895,0.3891,0.3888,0.3883,0.3877,0.3876,0.3869,0.3865,0.3856,0.3853,0.3848,0.3849,0.3847,0.3846,0.3846,0.3846,0.3856,0.3847,0.3847,0.3847,0.3847,0.3847,0,0.3904,0.3901,0.3897,0.3891,0.3887,0.3888,0.3884,0.388,0.3875,0.3871,0.3866,0.386,0.3854,0.385,0.3845,0.3841,0.3841,0.384,0.384,0.3839,0.3846,0.3847,0.3841,0.3841,0.3841,0.3841,0.3841,0.3841,0.3897,0.3891,0.389,0.3882,0.3879,0.3874,0.3871,0.3868,0.3865,0.3858,0.3854,0.3852,0.3848,0.3842,0.3837,0.3836,0.3834,0.3833,0.3832,0.3838,0.3839,0.3839,0.3841,0.3833,0.3833,0.3827,0.3826,0.3826]},{"header":{"parameterUnit":"m.s-1","parameterCategory":1,"la1":30.2991,"la2":30.254,"lo1":-89.0895,"lo2":-89.0444,"dy":0.0017,"dx":0.0017,"nx":28,"ny":28,"refTime":"2023-10-30T09:00:00:Z","depth":0,"parameterNumber":3,"parameterNumberName":"V-component_of_WINDS"},"data":[0,0,0,0,0,0,0,0,0,0,0,0,0,0,0,0,0,0,0,0,0,0,0,0,0,0,0,0,0,0,0,0,0,0,0,0,0,0,0,0,0,0,0,0,0,0,0,0,0,0,0,0,0,0,0,0,0,0,-7.9998,-7.9999,0,-8.0117,-8.0118,-8.0119,-8.006,-8.0057,-8.0053,-8.0051,-8.0165,-8.0171,-8.0176,0,0,0,0,0,0,0,0,0,0,0,0,0,-7.9711,-7.9716,-7.9997,-7.9999,-8.0,-8.0117,-8.0118,-8.012,-8.006,-8.0056,-8.0053,-8.0049,-8.0163,-8.017,-8.0177,0,0,0,0,0,0,0,0,0,0,0,0,0,-7.9833,-7.9718,-7.9997,-7.9985,-7.9985,-8.0116,-8.0118,-8.012,-8.0061,-8.0056,-8.0052,-8.0047,-8.0161,-8.0169,-8.0178,-8.0326,0,0,-8.0205,-8.0209,0,0,0,0,0,0,0,0,-7.9826,-7.9843,-7.9985,-7.9986,-7.9986,-8.0069,-8.0059,-8.0189,-8.0062,-8.0032,-8.005,-8.0045,-8.0136,-8.0147,-8.0179,-8.0331,-8.0336,-8.0206,-8.0211,-8.0215,-8.0218,0,0,0,0,0,0,0,-7.9818,-7.9838,-8.0044,-7.9987,-7.9988,-7.9971,-7.9983,-8.0083,-8.0108,-8.0034,-8.003,-8.0046,-8.0135,-8.0171,-8.0181,-8.0338,-8.0206,-8.0214,-8.0219,-8.0223,-8.0617,-8.0621,0,0,0,0,0,0,-7.9811,-7.9831,-8.0041,-8.0048,-7.9893,-7.998,-7.9994,-8.0047,-8.0107,-8.0112,-8.0049,-8.0042,-8.0158,-8.0171,-8.0185,-8.0362,-8.0215,-8.0223,-8.0228,-8.0611,-8.0618,-8.0623,0,0,0,0,0,0,-7.9805,-7.983,-8.0036,-7.9939,-7.9964,-7.999,-8.005,-8.0052,-8.0087,-8.0119,-8.0122,-8.0081,-8.0155,-8.0172,-8.0292,-8.0365,-8.0227,-8.0235,-8.0605,-8.0613,-8.062,-8.0717,0,0,0,0,0,0,-7.9797,-7.9828,-7.9886,-7.9941,-7.9969,-8.0143,-8.0055,-8.0057,-8.0103,-8.0095,-8.015,-8.0154,-8.0152,-8.0279,-8.0301,-8.0375,-8.0242,-8.0599,-8.0609,-8.0618,-8.0708,-8.0727,-8.0744,0,0,0,0,0,-7.9787,-7.9907,-7.989,-7.9915,-8.0043,-8.0147,-8.0163,-8.0161,-8.011,-8.0167,-8.0187,-8.0152,-8.0354,-8.0292,-8.0316,-8.0394,-8.0594,-8.0606,-8.0617,-8.0699,-8.0723,-8.0744,0,0,0,0,0,0,-7.9858,-7.9914,-7.9895,-8.0037,-8.0089,-8.0137,-8.021,-8.0187,-8.0252,-8.0241,-8.0233,-8.0246,-8.037,-8.0393,-8.0323,-8.054,-8.0466,-8.0483,-8.052,-8.0543,-8.0561,-8.0552,-8.025,0,0,0,0,0,-7.989,-7.9973,-8.0017,-8.0138,-8.0165,-8.0183,-8.0228,-8.0223,-8.0274,-8.0295,-8.0324,-8.0373,-8.0448,-8.0496,-8.0567,-8.0711,-8.0721,-8.0776,-8.0795,-8.0809,-8.0824,-8.0901,-8.0926,-8.0661,-8.0661,-8.0661,0,0,-7.9957,-7.9999,-8.0051,-8.0153,-8.0192,-8.0276,-8.0201,-8.0293,-8.0354,-8.0308,-8.0423,-8.0446,-8.05,-8.0633,-8.0693,-8.0656,-8.09,-8.0824,-8.0836,-8.0842,-8.0916,-8.0941,-8.0963,-8.0669,-8.0668,-8.0666,0,0,-8.0123,-8.0163,-8.0268,-8.031,-8.0371,-8.0383,-8.0408,-8.0461,-8.0476,-8.0592,-8.0559,-8.063,-8.0759,-8.0799,-8.0836,-8.1018,-8.0988,-8.1041,-8.1136,-8.1212,-8.1233,-8.1251,-8.1316,-8.1339,-8.1055,-8.1056,-8.1056,0,-8.0198,-8.0326,-8.0324,-8.042,-8.0465,-8.043,-8.0535,-8.0575,-8.0654,-8.0685,-8.0644,-8.0806,-8.0839,-8.0981,-8.1026,-8.1057,-8.1084,-8.1034,-8.123,-8.1249,-8.1266,-8.1327,-8.1352,-8.1062,-8.1061,-8.106,-8.106,0,-8.0415,-8.0504,-8.0581,-8.0663,-8.0716,-8.0816,-8.0828,-8.0882,-8.0872,-8.0888,-8.1006,-8.1046,-8.1123,-8.1156,-8.1146,-8.1297,-8.1272,-8.1231,-8.1157,-8.1297,-8.1355,-8.1378,-8.107,-8.1068,-8.1066,-8.1065,0,0,-8.0627,-8.0708,-8.0737,-8.0773,-8.0839,-8.0906,-8.1003,-8.1083,-8.1129,-8.1185,-8.1266,-8.1376,-8.1339,-8.1381,-8.1375,-8.1442,-8.1583,-8.1392,-8.1393,-8.1426,-8.175,-8.178,-8.1808,-8.1564,-8.1568,-8.1572,-8.1745,0,-8.0797,-8.0971,-8.0973,-8.1132,-8.1213,-8.1181,-8.1266,-8.1314,-8.1331,-8.1401,-8.1418,-8.1497,-8.1442,-8.1467,-8.1532,-8.1552,-8.1648,-8.154,-8.1636,-8.164,-8.1623,-8.1838,-8.187,-8.2032,-8.1768,-8.1772,-8.1775,0,-8.1018,-8.1085,-8.1253,-8.1307,-8.1341,-8.1418,-8.1491,-8.1559,-8.1612,-8.1619,-8.1668,-8.1652,-8.1749,-8.1672,-8.1805,-8.1731,-8.1771,-8.1787,-8.1793,-8.1801,-8.1715,-8.1851,-8.2084,-8.2108,-8.181,-8.1807,-8.1805,0,-8.1155,-8.1287,-8.1405,-8.1437,-8.1504,-8.1558,-8.1588,-8.1637,-8.1684,-8.1747,-8.1778,-8.185,-8.1889,-8.1944,-8.1947,-8.1891,-8.2081,-8.2005,-8.2088,-8.2088,-8.2129,-8.2126,-8.237,-8.2156,-8.2155,-8.2155,-8.2154,0,-8.1344,-8.1448,-8.1468,-8.154,-8.1655,-8.1656,-8.1768,-8.1793,-8.1837,-8.1912,-8.1888,-8.1958,-8.1958,-8.2029,-8.2032,-8.2141,-8.2159,-8.2166,-8.2165,-8.2168,-8.2167,-8.2193,-8.2181,-8.2161,-8.216,-8.2159,-8.2157,0,-8.1517,-8.1534,-8.1661,-8.1715,-8.173,-8.1813,-8.1857,-8.1925,-8.194,-8.2035,-8.2057,-8.2081,-8.2163,-8.2172,-8.2267,-8.2269,-8.24,-8.2388,-8.2383,-8.2381,-8.2464,-8.2456,-8.2733,-8.2769,-8.2532,-8.2534,-8.2536,0,-8.1636,-8.1716,-8.1779,-8.1829,-8.1863,-8.1943,-8.1992,-8.1996,-8.2047,-8.2115,-8.2174,-8.2255,-8.2319,-8.2452,-8.2475,-8.2548,-8.2536,-8.2629,-8.2547,-8.2547,-8.2537,-8.2532,-8.254,-8.2644,-8.2647,-8.2649,-8.265,0,-8.1845,-8.1851,-8.1924,-8.2002,-8.2062,-8.2122,-8.2178,-8.222,-8.223,-8.2289,-8.2375,-8.2425,-8.2523,-8.2603,-8.2675,-8.2702,-8.2678,-8.2676,-8.2699,-8.2702,-8.2697,-8.27,-8.2426,-8.267,-8.2668,-8.2666,-8.2665,-8.2664,-8.1995,-8.2064,-8.212,-8.2203,-8.2246,-8.23,-8.2367,-8.2392,-8.2464,-8.2547,-8.2543,-8.2638,-8.2688,-8.2782,-8.2815,-8.2887,-8.2856,-8.2889,-8.2898,-8.2906,-8.2914,-8.2686,-8.29,-8.2899,-8.2899,-8.2898,-8.2898,0,-8.2202,-8.2238,-8.2314,-8.2395,-8.246,-8.2435,-8.2496,-8.2551,-8.2635,-8.2686,-8.2751,-8.2849,-8.2926,-8.2957,-8.3032,-8.3084,-8.3075,-8.3103,-8.3099,-8.3106,-8.2938,-8.291,-8.311,-8.311,-8.311,-8.311,-8.311,-8.3109,-8.2318,-8.2435,-8.2447,-8.2584,-8.2617,-8.2712,-8.2749,-8.2797,-8.2838,-8.295,-8.3015,-8.3036,-8.3078,-8.3156,-8.3226,-8.3232,-8.3261,-8.3295,-8.3296,-8.3139,-8.3117,-8.3097,-8.3071,-8.3301,-8.3301,-8.3458,-8.3459,-8.3461]}]]